Location: Lecco
(45.8566°N, 9.3977°E)
Time: 12:51:39
(UTC+02:00)

Vanguard 2 Rocket - Pass Details

Date: 14 August 2020
Orbit: 554 x 3326 km, 32.9° (Epoch: 24 September)

Event Time Altitude Azimuth Distance (km) Brightness Sun altitude
Rises 23:25:18 0° 263° (W) 4,573 10.8 -24.2°
Reaches altitude 10° 23:28:53 10° 248° (WSW) 3,998 10.3 -24.5°
Maximum altitude 23:36:41 22° 203° (SSW) 3,902 9.7 -25.2°
Enters shadow 23:38:50 21° 192° (SSW) 4,140 9.8 -25.4°
Drops below altitude 10° 23:47:23 10° 162° (SSE) 5,652 - -26.1°
Sets 23:54:02 0° 150° (SSE) 7,029 - -26.6°
